Weather History for Crestview, FL

Change the Weather History Date:

Thursday, December 15, 2011

  Actual Average Record
Temperature  
Mean Temperature 62 °F -  
Max Temperature 73 °F - - ()
Min Temperature 50 °F - - ()
Degree Days  
Heating Degree Days 4    
Growing Degree Days 12 (Base 50)    
Moisture  
Dew Point 58 °F    
Average Humidity 88    
Maximum Humidity 100    
Minimum Humidity 64    
Precipitation  
Precipitation 0.00 in - - ()
Sea Level Pressure  
Sea Level Pressure 30.20 in    
Wind  
Wind Speed 5 mph (SSE)    
Max Wind Speed 13 mph    
Max Gust Speed -    
Visibility 8 miles    
Events Fog    
T = Trace of Precipitation, MM = Missing Value Source: NWS Daily Summary

Daily Weather History Graph

Daily Weather History Graph

Search for Another Location

Airport:

Trip Planner

Search our weather history database for the weather conditions in past years. The results will help you decide how hot, cold, wet, or windy it might be!

Date:

Astronomy

Dec. 15, 2011 Rise Set
Actual Time 6:35 AM CST 4:46 PM CST
Civil Twilight 6:09 AM CST 5:13 PM CST
Nautical Twilight 5:39 AM CST 5:43 PM CST
Astronomical Twilight 5:09 AM CST 6:12 PM CST
Moon 9:54 PM CST (12/15) 10:07 AM CST (12/15)
Length of Visible Light 11h 03m
Length of Day
10h 10m
Waning Gibbous, 74% of the Moon is Illuminated
Dec 15
Waning Gibbous
Dec 17
Last Quarter
Dec 24
New
Jan 1
First Quarter
Jan 9
Full

Hourly Weather History & Observations

Time (CST) Temp. Dew Point Humidity Pressure Visibility Wind Dir Wind Speed Gust Speed Precip Events Conditions
12:55 AM 52.5 °F 51.4 °F 96% 30.22 in 10.0 mi SE 5.8 mph - N/A   Clear
1:55 AM 56.3 °F 50.9 °F 82% 30.21 in 10.0 mi Calm Calm - N/A   Clear
2:55 AM 50.7 °F 49.6 °F 96% 30.21 in 10.0 mi Calm Calm - N/A   Clear
3:55 AM 57.4 °F 53.6 °F 87% 30.19 in 10.0 mi ESE 8.1 mph - N/A   Clear
4:55 AM 57.7 °F 55.4 °F 92% 30.18 in 10.0 mi ESE 9.2 mph - N/A   Clear
5:55 AM 56.8 °F 55.2 °F 94% 30.22 in 10.0 mi ESE 3.5 mph - N/A   Clear
6:55 AM 56.1 °F 54.7 °F 95% 30.23 in 10.0 mi Calm Calm - N/A   Clear
7:55 AM 56.5 °F 55.6 °F 97% 30.24 in 10.0 mi NE 3.5 mph - N/A   Scattered Clouds
8:55 AM 65.5 °F 59.9 °F 82% 30.25 in 10.0 mi ESE 6.9 mph - N/A   Partly Cloudy
9:55 AM 69.6 °F 61.2 °F 74% 30.26 in 10.0 mi SSE 6.9 mph - N/A   Scattered Clouds
10:55 AM 72.5 °F 61.5 °F 68% 30.24 in 10.0 mi SSE 11.5 mph - N/A   Mostly Cloudy
11:14 AM 71.6 °F 60.8 °F 69% 30.22 in 10.0 mi SSE 9.2 mph - N/A   Mostly Cloudy
11:55 AM 72.0 °F 61.0 °F 68% 30.21 in 10.0 mi SSE 10.4 mph - N/A   Mostly Cloudy
12:55 PM 72.0 °F 60.8 °F 68% 30.19 in 10.0 mi SSE 9.2 mph - N/A   Mostly Cloudy
1:55 PM 73.8 °F 61.0 °F 64% 30.17 in 10.0 mi South 9.2 mph - N/A   Mostly Cloudy
2:55 PM 72.0 °F 60.4 °F 67% 30.16 in 10.0 mi South 11.5 mph - N/A   Partly Cloudy
3:55 PM 69.3 °F 60.3 °F 73% 30.16 in 10.0 mi South 12.7 mph - N/A   Partly Cloudy
4:55 PM 65.1 °F 60.3 °F 84% 30.17 in 10.0 mi SSE 5.8 mph - N/A   Scattered Clouds
5:55 PM 61.7 °F 59.0 °F 91% 30.18 in 10.0 mi SSE 4.6 mph - N/A   Clear
6:55 PM 59.9 °F 58.6 °F 96% 30.19 in 10.0 mi SSE 3.5 mph - N/A   Clear
7:49 PM 60.8 °F 59.0 °F 94% 30.20 in 1.0 mi SSE 3.5 mph - N/A   Clear
7:55 PM 59.7 °F 58.8 °F 97% 30.22 in 5.0 mi SSE 2.3 mph - N/A   Clear
8:21 PM 59.0 °F 59.0 °F 100% 30.19 in 3.0 mi South 3.5 mph - N/A   Clear
8:41 PM 59.0 °F 59.0 °F 100% 30.19 in 2.0 mi SSE 3.5 mph - N/A   Clear
8:55 PM 58.3 °F 57.6 °F 97% 30.21 in 1.0 mi SE 3.5 mph - N/A   Clear
9:40 PM 59.0 °F 59.0 °F 100% 30.19 in 0.5 mi SSE 3.5 mph - N/A Fog Fog
9:55 PM 59.0 °F 59.0 °F 100% 30.21 in 0.5 mi SSE 3.5 mph - N/A Fog Fog
10:56 PM 58.3 °F 58.1 °F 99% 30.20 in 1.0 mi SSE 4.6 mph - N/A   Clear
11:09 PM 57.2 °F 57.2 °F 100% 30.18 in 3.0 mi SE 5.8 mph - N/A   Clear
11:15 PM 59.0 °F 57.2 °F 94% 30.19 in 6.0 mi SE 5.8 mph - N/A   Clear
11:55 PM 57.4 °F 57.0 °F 99% 30.18 in 10.0 mi SSE 4.6 mph - N/A   Clear